User: anonymous   Login
Location: Hurstbourne Priors
(51.2000°N, 1.3667°W)
Time: 15:57:42
(UTC+00:00)
Language:

BREEZE M DEB (TANK) - Orbit

View from above orbital plane
View from above orbital plane
View from above satellite
View from above satellite

Ground track
Ground track

The orbit data is extracted from the following two-line orbital elements,

1 28359U 04022B   21163.59524369  .00002447  00000-0  32064-3 0  9996
2 28359  49.5310  22.0280 4637883  36.4256 347.7312  6.25091546375998
Epoch (UTC): 12 June 2021 14:17:09
Eccentricity: 0.4637883
inclination: 49.5310°
perigee height: 297 km
apogee height: 11843 km
right ascension of ascending node: 22.0280°
argument of perigee: 36.4256°
revolutions per day: 6.25091546
mean anomaly at epoch: 347.7312°
orbit number at epoch: 37599

The dashed part of the orbit path shows where the satellite is in the earth's shadow,  

DLR